This is the latest recevied weather packets stored in our database for station/object WX4LTG. If no packets are shown the sender has not sent any weather packets the latest 10 day(s).
| Time | Temp. | Humidity | Pressure | Rain* | Wind** | Luminosity | Snow |
|---|---|---|---|---|---|---|---|
| 1776958654 | 21.67° C | 27% | 1013.5 hPa | 0 mm | - | 309 W/m² | - |
| 1776958352 | 21.67° C | 27% | 1013.5 hPa | 0 mm | - | 315 W/m² | - |
| 1776958048 | 22.22° C | 26% | 1013.6 hPa | 0 mm | - | 298 W/m² | - |
| 1776957743 | 21.67° C | 26% | 1013.4 hPa | 0 mm | - | 277 W/m² | - |
| 1776957439 | 21.67° C | 26% | 1013.4 hPa | 0 mm | - | 276 W/m² | - |
| 1776957135 | 21.67° C | 26% | 1013.8 hPa | 0 mm | - | 265 W/m² | - |
| 1776956835 | 21.67° C | 27% | 1013.6 hPa | 0 mm | - | 236 W/m² | - |
| 1776956534 | 21.11° C | 28% | 1013.4 hPa | 0 mm | - | 246 W/m² | - |
| 1776956234 | 21.11° C | 27% | 1013.6 hPa | 0 mm | - | 227 W/m² | - |
| 1776955929 | 20.56° C | 28% | 1013.5 hPa | 0 mm | - | 208 W/m² | - |
| 1776955625 | 20° C | 29% | 1013.6 hPa | 0 mm | - | 187 W/m² | - |
| 1776955322 | 20° C | 30% | 1013.6 hPa | 0 mm | - | 171 W/m² | - |
| 1776955017 | 20° C | 30% | 1013.5 hPa | 0 mm | - | 175 W/m² | - |
| 1776954715 | 20° C | 29% | 1013.5 hPa | 0 mm | - | 172 W/m² | - |
| 1776954413 | 19.44° C | 29% | 1013.6 hPa | 0 mm | - | 149 W/m² | - |
| 1776954109 | 18.89° C | 30% | 1013.5 hPa | 0 mm | - | 131 W/m² | - |
| 1776953809 | 18.89° C | 31% | 1013.3 hPa | 0 mm | - | 119 W/m² | - |
| 1776953504 | 18.33° C | 32% | 1013.2 hPa | 0 mm | - | 112 W/m² | - |
| 1776953204 | 18.33° C | 32% | 1013.4 hPa | 0 mm | - | 110 W/m² | - |
| 1776952898 | 18.33° C | 32% | 1013.2 hPa | 0 mm | - | 99 W/m² | - |
| 1776952595 | 17.78° C | 34% | 1012.9 hPa | 0 mm | - | 90 W/m² | - |
| 1776952291 | 17.22° C | 35% | 1013.1 hPa | 0 mm | - | 68 W/m² | - |
| 1776951988 | 17.22° C | 35% | 1013.1 hPa | 0 mm | - | 60 W/m² | - |
| 1776951685 | 17.22° C | 34% | 1013.1 hPa | 0 mm | - | 50 W/m² | - |
| 1776951381 | 17.22° C | 34% | 1012.9 hPa | 0 mm | - | 53 W/m² | - |
* Rain latest hour (hover to see other rain measurements)
** Current wind speed in m/s (hover to see current wind gust speed)